Lid_Strength_Index
5 4 4 4 4 4 5 5 4 4 5 5 4 5 5 6 6 6 6 7 6 7
5 4 4 4 4 4 4 4 4 4 5 5 5 5 5 6 5 6 6 6 7 7
5 3 4 4 4 4 4 4 5 5 5 5 5 5 5 6 6 6 7 7 8 8
5 4 4 4 4 4 5 4 4 5 5 5 5 5 5 5 6 6 7 7 8 9
5 4 4 4 4 4 5 5 4 5 5 5 5 5 5 5 5 6 7 7 7 8
5 5 4 4 4 4 5 5 5 5 5 5 5 5 5 5 5 5 6 7 7 8
6 5 4 4 4 4 5 5 5 5 5 5 5 5 5 5 5 5 6 6 7 8
6 6 4 4 4 4 5 5 5 5 5 5 5 5 5 5 5 6 6 7 8 8
6 7 5 5 5 5 5 5 5 5 5 5 6 10 7 6 6 6 6 7 8 8
7 8 7 5 5 5 5 5 6 6 6 6 5 8 8 8 5 6 6 6 8 9
8 8 7 6 6 6 5 6 6 6 6 6 6 8 8 9 6 6 6 6 7 7
9 9 9 7 7 6 6 6 6 6 6 6 6 9 8 8 6 8 8 7 6 6
11 10 9 8 8 9 7 7 9 10 7 9 6 9 9 8 7 9 9 10 9 12
11 11 10 8 10 10 9 10 10 11 10 9 8 8 9 9 8 8 9 9 10 10